Regional Weather Roundup
Issued by NWS

Home | Current Version | Previous Version | Text Only | Print | Product List | Glossary Off
Versions: 1 2 3 4 5 6 7 8 9 10 11 12 13 14 15 16 17 18 19 20 21 22 23 24 25 26 27 28 29 30 31 32 33 34 35 36 37 38 39 40 41 42 43 44 45 46 47 48 49 50

000
ASUS43 KFSD 021210
RWRSD

WEATHER ROUNDUP FOR SOUTH DAKOTA
NATIONAL WEATHER SERVICE SIOUX FALLS SD
700 AM CDT THU OCT 02 2014

NOTE: "FAIR" INDICATES FEW OR NO CLOUDS BELOW 12,000 FEET WITH NO
SIGNIFICANT WEATHER AND/OR OBSTRUCTIONS TO VISIBILITY.


SDZ001>005-009-010-012>017-021300-
NORTHWEST AND NORTH CENTRAL SOUTH DAKOTA

CITY           SKY/WX    TMP DP  RH WIND       PRES   REMARKS
BUFFALO          N/A     38  32  79 W12       29.89S
FAITH            N/A     41  37  86 W7        29.95R
MOBRIDGE       CLEAR     43  40  89 NW6       29.90S
$$

SDZ012>016-024>037-041>051-057-063-072>074-021300-
SOUTHWEST AND SOUTH CENTRAL SOUTH DAKOTA

CITY           SKY/WX    TMP DP  RH WIND       PRES   REMARKS
RAPID CTY ARPT CLEAR     38  34  85 NW7       30.00S
PIERRE         MOCLDY    47  43  86 W8        29.93R
CUSTER         CLEAR     33  30  88 W5        30.04R WCI  29
ELLSWORTH AFB  CLEAR     40  35  83 W8        30.00R
PHILIP         CLEAR     42  40  92 W9        29.97S
PINE RIDGE     CLEAR     39  38  96 SW5       30.04R
WINNER         PTSUNNY   50  47  89 W7        29.95R
$$

SDZ004>011-016>023-039-040-021300-
NORTHEAST SOUTH DAKOTA

CITY           SKY/WX    TMP DP  RH WIND       PRES   REMARKS
ABERDEEN       CLOUDY    50  48  93 CALM      29.89F
WATERTOWN      CLOUDY    49  47  93 NW3       29.88R
SISSETON         N/A     46  46 100 CALM      29.86R
$$

SDZ017-020-022-023-036>040-048>070-021300-
SOUTHEAST SOUTH DAKOTA

CITY           SKY/WX    TMP DP  RH WIND       PRES   REMARKS
SIOUX FALLS    LGT RAIN  54  50  86 NW7       29.87R
HURON          LGT RAIN  51  49  92 NW6       29.90R
CHAMBERLAIN    CLOUDY    50  49  94 W7        29.93F
MITCHELL       LGT RAIN  53  51  93 W7        29.92R
YANKTON        CLOUDY    54  50  87 NW7       29.90S
$$

ABBREVIATIONS USED IN REMARKS
   TC - TEMPERATURE IN CELSIUS
  WCI - WIND CHILL INDEX
   HX - HEAT INDEX
  VSB - VISIBILITY



USA.gov is the U.S. government's official web portal to all federal, state and local government web resources and services.